sat.trackr.live / text

‹ back to catalog

STARLINK-36463

NORAD 67315 · 2026-002L

PAYLOAD ACTIVE UNKNOWN

§ Identity

Operator
Country
US
Launch date
2026-01-04
Launch site
AFETR
Launch vehicle
Mass (kg)
RCS (m²)

Purposes: comms

External: N2YO · Heavens-Above · Gunter

§ Orbital elements

Epoch: 2026-05-25T00:13:50.201184Z

Period
94.27 min
Inclination
43.0011°
Eccentricity
0.0001102
Mean motion
15.27575274 rev/d
Perigee alt
482.3 km
Apogee alt
483.8 km
Semi-major
6,861.2 km
B*
5.4672e-4
RAAN
254.0289°
Arg perigee
278.3239°
Mean anomaly
81.7488°
Rev number
2,281

§ Raw data

STARLINK-364631 67315U 26002L   26145.00960881  .00014811  00000+0  54672-3 0  99932 67315  43.0011 254.0289 0001102 278.3239  81.7488 15.27575274 22815

JSON: /api/v1/satellites/67315 · /tle

For live sub-satellite position, see the globe view (requires WebGL).

§ Visibility from observer

Set your observer location to see the next 7 days of passes ≥ 10°. The values pass through the URL so the page stays shareable.

No JS? Fill the form by hand. The geolocation button needs JavaScript.